TimeMST,TemperatureF,Dew PointF,Humidity,Sea Level PressureIn,VisibilityMPH,Wind Direction,Wind SpeedMPH,Gust SpeedMPH,PrecipitationIn,Events,Conditions,WindDirDegrees,DateUTC
12:15 AM,29.3,25.7,86,30.38,10.0,Calm,Calm,-,N/A,,Clear,0,2013-02-02 07:15:00
12:55 AM,28.4,25.7,90,30.40,10.0,ENE,3.5,-,N/A,,Clear,60,2013-02-02 07:55:00
1:15 AM,27.3,24.4,89,30.40,10.0,NE,3.5,-,N/A,,Clear,50,2013-02-02 08:15:00
1:35 AM,27.5,23.7,86,30.41,10.0,NE,5.8,-,N/A,,Clear,50,2013-02-02 08:35:00
1:55 AM,28.2,23.7,83,30.42,10.0,ENE,4.6,-,N/A,,Clear,60,2013-02-02 08:55:00
2:15 AM,27.5,22.8,83,30.42,10.0,NE,4.6,-,N/A,,Clear,50,2013-02-02 09:15:00
2:35 AM,28.4,23.2,81,30.43,10.0,Calm,Calm,-,N/A,,Clear,0,2013-02-02 09:35:00
2:55 AM,27.7,22.5,81,30.43,10.0,ENE,3.5,-,N/A,,Clear,60,2013-02-02 09:55:00
3:15 AM,27.1,22.3,82,30.43,10.0,East,4.6,-,N/A,,Clear,80,2013-02-02 10:15:00
3:35 AM,25.7,22.1,86,30.43,10.0,Calm,Calm,-,N/A,,Clear,0,2013-02-02 10:35:00
3:55 AM,25.7,23.0,89,30.43,10.0,Calm,Calm,-,N/A,,Clear,0,2013-02-02 10:55:00
4:15 AM,26.4,23.0,87,30.43,10.0,Calm,Calm,-,N/A,,Clear,0,2013-02-02 11:15:00
4:35 AM,26.2,22.6,86,30.44,10.0,Calm,Calm,-,N/A,,Clear,0,2013-02-02 11:35:00
4:55 AM,26.6,21.2,80,30.44,10.0,NNE,4.6,-,N/A,,Clear,30,2013-02-02 11:55:00
5:15 AM,25.7,21.2,83,30.45,10.0,NE,4.6,-,N/A,,Clear,50,2013-02-02 12:15:00
5:35 AM,25.7,21.0,82,30.45,10.0,East,4.6,-,N/A,,Clear,80,2013-02-02 12:35:00
5:55 AM,25.0,21.2,86,30.45,10.0,NE,8.1,-,N/A,,Clear,50,2013-02-02 12:55:00
6:15 AM,26.1,21.0,81,30.46,10.0,NE,5.8,-,N/A,,Clear,50,2013-02-02 13:15:00
6:35 AM,25.5,20.5,81,30.46,10.0,ENE,3.5,-,N/A,,Clear,60,2013-02-02 13:35:00
6:55 AM,24.1,20.3,85,30.46,10.0,East,4.6,-,N/A,,Clear,90,2013-02-02 13:55:00
7:15 AM,23.5,20.3,87,30.47,10.0,ESE,3.5,-,N/A,,Clear,110,2013-02-02 14:15:00
7:35 AM,23.5,20.3,87,30.48,10.0,Calm,Calm,-,N/A,,Clear,0,2013-02-02 14:35:00
7:55 AM,25.2,21.4,86,30.49,10.0,Calm,Calm,-,N/A,,Clear,0,2013-02-02 14:55:00
8:15 AM,28.2,21.6,76,30.49,10.0,Calm,Calm,-,N/A,,Clear,0,2013-02-02 15:15:00
8:35 AM,29.8,20.8,69,30.50,10.0,East,5.8,-,N/A,,Clear,90,2013-02-02 15:35:00
8:55 AM,30.2,21.2,69,30.50,10.0,East,3.5,-,N/A,,Clear,90,2013-02-02 15:55:00
9:15 AM,31.1,21.6,68,30.50,10.0,Calm,Calm,-,N/A,,Clear,0,2013-02-02 16:15:00
9:55 AM,32.7,22.1,65,30.51,10.0,ENE,4.6,-,N/A,,Clear,60,2013-02-02 16:55:00
10:15 AM,33.1,22.8,66,30.51,10.0,ENE,5.8,-,N/A,,Clear,70,2013-02-02 17:15:00
10:35 AM,34.2,23.4,65,30.51,10.0,ENE,4.6,-,N/A,,Clear,70,2013-02-02 17:35:00
10:55 AM,34.7,23.5,64,30.51,10.0,East,3.5,-,N/A,,Clear,100,2013-02-02 17:55:00
11:15 AM,35.6,23.0,60,30.50,10.0,Calm,Calm,-,N/A,,Clear,0,2013-02-02 18:15:00
11:35 AM,37.0,22.8,56,30.49,10.0,Calm,Calm,-,N/A,,Clear,0,2013-02-02 18:35:00
11:55 AM,37.4,23.0,56,30.48,10.0,Calm,Calm,-,N/A,,Clear,0,2013-02-02 18:55:00
12:15 PM,38.3,21.7,51,30.46,10.0,Calm,Calm,-,N/A,,Clear,0,2013-02-02 19:15:00
12:35 PM,39.6,22.1,50,30.45,10.0,Calm,Calm,-,N/A,,Clear,0,2013-02-02 19:35:00
1:15 PM,42.1,21.9,45,30.44,10.0,Calm,Calm,-,N/A,,Clear,0,2013-02-02 20:15:00
1:35 PM,42.8,23.4,46,30.42,10.0,ENE,3.5,-,N/A,,Clear,70,2013-02-02 20:35:00
1:55 PM,43.7,23.2,44,30.41,10.0,Calm,Calm,-,N/A,,Clear,0,2013-02-02 20:55:00
2:15 PM,44.4,23.4,43,30.40,10.0,ENE,3.5,-,N/A,,Clear,70,2013-02-02 21:15:00
2:35 PM,45.0,22.8,42,30.40,10.0,Calm,Calm,-,N/A,,Clear,0,2013-02-02 21:35:00
2:55 PM,45.3,23.7,43,30.40,10.0,Calm,Calm,-,N/A,,Clear,0,2013-02-02 21:55:00
3:15 PM,45.7,23.5,42,30.40,10.0,Calm,Calm,-,N/A,,Clear,0,2013-02-02 22:15:00
3:35 PM,45.9,23.5,41,30.39,10.0,Calm,Calm,-,N/A,,Clear,0,2013-02-02 22:35:00
3:55 PM,46.0,23.4,41,30.39,10.0,Calm,Calm,-,N/A,,Clear,0,2013-02-02 22:55:00
4:15 PM,45.9,22.6,40,30.39,10.0,Calm,Calm,-,N/A,,Clear,0,2013-02-02 23:15:00
4:35 PM,45.7,23.0,41,30.39,10.0,Calm,Calm,-,N/A,,Clear,0,2013-02-02 23:35:00
4:55 PM,44.8,24.6,45,30.38,10.0,Calm,Calm,-,N/A,,Clear,0,2013-02-02 23:55:00
5:15 PM,43.7,26.4,51,30.38,10.0,Calm,Calm,-,N/A,,Clear,0,2013-02-03 00:15:00
5:35 PM,42.8,25.7,51,30.38,10.0,Calm,Calm,-,N/A,,Clear,0,2013-02-03 00:35:00
5:55 PM,40.1,27.3,60,30.38,10.0,Calm,Calm,-,N/A,,Clear,0,2013-02-03 00:55:00
6:15 PM,41.4,24.1,50,30.38,10.0,Calm,Calm,-,N/A,,Clear,0,2013-02-03 01:15:00
6:35 PM,40.1,26.2,58,30.39,10.0,Calm,Calm,-,N/A,,Clear,0,2013-02-03 01:35:00
6:55 PM,36.1,28.2,73,30.39,10.0,Calm,Calm,-,N/A,,Clear,0,2013-02-03 01:55:00
7:15 PM,35.2,27.1,72,30.39,10.0,Calm,Calm,-,N/A,,Clear,0,2013-02-03 02:15:00
7:35 PM,34.7,27.1,74,30.39,10.0,Calm,Calm,-,N/A,,Clear,0,2013-02-03 02:35:00
7:55 PM,36.7,25.7,64,30.39,10.0,Calm,Calm,-,N/A,,Clear,0,2013-02-03 02:55:00
8:15 PM,35.4,26.8,71,30.39,10.0,Calm,Calm,-,N/A,,Clear,0,2013-02-03 03:15:00
8:35 PM,34.9,27.9,76,30.39,10.0,Calm,Calm,-,N/A,,Clear,0,2013-02-03 03:35:00
8:55 PM,32.9,27.5,81,30.39,10.0,ENE,3.5,-,N/A,,Clear,70,2013-02-03 03:55:00
9:15 PM,32.5,27.5,82,30.39,10.0,East,3.5,-,N/A,,Clear,80,2013-02-03 04:15:00
9:55 PM,32.0,27.3,83,30.39,10.0,ENE,4.6,-,N/A,,Clear,60,2013-02-03 04:55:00
10:15 PM,32.4,27.5,82,30.38,10.0,NE,5.8,-,N/A,,Clear,50,2013-02-03 05:15:00
10:35 PM,32.2,27.3,82,30.38,10.0,ENE,4.6,-,N/A,,Clear,60,2013-02-03 05:35:00
10:55 PM,32.0,26.8,81,30.38,10.0,East,3.5,-,N/A,,Clear,100,2013-02-03 05:55:00
11:15 PM,31.5,27.1,84,30.38,10.0,Calm,Calm,-,N/A,,Clear,0,2013-02-03 06:15:00
11:35 PM,31.1,26.1,82,30.38,10.0,NE,4.6,-,N/A,,Clear,40,2013-02-03 06:35:00
11:55 PM,32.0,25.7,78,30.38,10.0,ESE,3.5,-,N/A,,Clear,120,2013-02-03 06:55:00